Время (UTC), дата Ветер
(°,м/с) 
Видим.   Явления Облачность Т
(°С)
Тd
(°С)
f(%) Тe
(°С)
Pmin
(гПа)
dP
(гПа)
Po
(мм)
O2
(г/м3)
Тmin Tmax R s Состояние
почвы
00 14.07.15 320 (СЗ) 20000 м    ясно 
+16.6 +9.6 63 +18  1016  723  273           
03 14.07.15 010 (С) 20000 м    ясно 
+18 +9.1 56 +20  1015.5  -0.3  723  272  +14.4        сухая 
06 14.07.15 070 (В) 20000 м    ясно 
+22.5 +10 45 +24  1014.1  -0.5  722  267           
09 14.07.15 120 (ЮВ) 20000 м    5/5 1000 м 
[Cu hum]
+26.6 +9 33 +27  1011.8  -1.6  721  263           
12 14.07.15 140 (ЮВ) 5{13}  20000 м    4/4 1000 м 
[Cu hum]
+28.3 +8.1 28 +28  1009.9  -1.5  720  261           
15 14.07.15 110 (В) 20000 м    ясно 
+27.3 +8.1 30 +27  1009.3  -0.7  719  262    +28.6       
18 14.07.15 тихо ()   20000 м    ясно 
+22.4 +9 42 +23  1010.7  0.5  720  266           
21 14.07.15 100 (В) 20000 м    ясно 
+19.6 +9.8 53 +23  1010.7  -0.4  719  269           
00 15.07.15 200 (Ю) 20000 м    4/0 средняя 
[Ac trans]
+20.3 +10.5 53 +23  1009.8  -0.8  719  268           
03 15.07.15 250 (З) 20000 м    1/0 средняя 
[Ac trans]
+19.1 +12.4 65 +26  1010.2  0.2  719  268  +17.1        сухая 
06 15.07.15 290 (З) 20000 м    6/0 средняя 
[Ac trans]
+24.4 +13.6 51 +32  1009.8  0.6  719  263           
09 15.07.15 290 (З) 20000 м    9/3 600 м средняя 
[Cu hum|Ac trans]
+26.9 +12 40 +32  1010.5  720  262           
12 15.07.15 280 (З) 8-12{12}  20000 м    8/3 600 м кучево-дожд., средняя 
[Cb calv|Ac trans]
+26.4 +12.2 41 +32  1010.5  720  262           
15 15.07.15 280 (З) 7-10{12}  20000 м    8/3 1000 м кучево-дожд., средняя 
[Cb calv|Ac trans]
+25.2 +8.8 35 +26  1012  1.1  721  264    +27.1       
18 15.07.15 260 (З) 3{10}  20000 м    6/0 средняя 
[Ac trans]
+19.7 +13.3 67 +28  1015.3  2.3  723  269           
21 15.07.15 250 (З) 20000 м    ясно 
+17.1 +13.7 80 +24  1016.2  0.4  723  271           
00 16.07.15 270 (З) 20000 м    ясно 
+16.7 +13.8 83 +25  1015.7  -0.5  723  272           
03 16.07.15 270 (З) 20000 м    3/0 средняя 
[Ac trans]
+17.6 +14.7 83 +27  1015.8  0.3  723  271  +15.9        сухая 
06 16.07.15 270 (З) 7{11}  20000 м    4/4 600 м 
[Cu hum]
+21.9 +14.4 62 +31  1015  0.1  723  267           
09 16.07.15 260 (З) 6-10{11}  20000 м    3/3 600 м 
[Cu hum]
+25.8 +9.7 36 +27  1013.6  -0.8  722  264           
12 16.07.15 270 (З) 7-11{12}  20000 м    3/3 600 м 
[Cu hum]
+27.3 +8 30 +27  1012.3  -1  722  263           
15 16.07.15 290 (З) 6{12}  20000 м    3/3 600 м средняя 
[Cu med, cong|Ac trans]
+25 +11.6 43 +29  1012.9  0.2  722  264    +27.4       
18 16.07.15 280 (З) 5{13}  20000 м    3/0 средняя 
[Ac trans]
+19.2 +13.2 68 +27  1015.4  1.4  723  269           
21 16.07.15 250 (З) 20000 м    3/0 средняя 
[Ac trans]
+17.1 +13.5 79 +24  1016.3  0.5  723  271           
00 17.07.15 270 (З) 20000 м    3/0 средняя 
[Ac trans]
+16.4 +14.3 87 +24  1016.3  -0.2  723  272           
03 17.07.15 270 (З) 20000 м    3/1 600 м кучево-дожд., средняя 
[Cb calv|Ac trans]
+16.9 +14.8 87 +26  1016.5  0.3  723  271  +15.9        сухая 
06 17.07.15 270 (З) 20000 м    8/4 600 м кучево-дожд., средняя 
[Cb calv|Ac trans]
+20.6 +13.5 64 +28  1016  0.1  723  268           
09 17.07.15 280 (З) 8-12{12}  20000 м    5/5 600 м 
[Cu med, cong]
+23.9 +10.2 42 +26  1015  -0.4  723  266           
12 17.07.15 280 (З) 8-13{14}  20000 м    3/3 1000 м 
[Cu med, cong]
+24.3 +5.6 30 +24  1014.9  0.1  723  267           
15 17.07.15 320 (СЗ) 6-10{14}  20000 м    3/3 1000 м 
[Cu hum]
+22.7 +5.4 32 +23  1015.6  0.4  723  268    +24.8       
18 17.07.15 280 (З) 3{10}  20000 м    3/0 средняя 
[Ac trans]
+19 +8.1 49 +20  1017.7  1.4  724  271           
21 17.07.15 280 (З) 20000 м    ясно 
+17.6 +8.4 55 +18  1017.7  -0.3  724  273           
00 18.07.15 230 (ЮЗ) 20000 м    ясно 
+15 +9.1 68 +16  1017.5  -0.6  724  275           
03 18.07.15 230 (ЮЗ) 20000 м    ясно 
+16.8 +10.8 68 +20  1016.6  -0.6  723  273  +12.1        сухая 
06 18.07.15 250 (З) 6{10}  20000 м    ясно 
+23.1 +9.8 43 +25  1014.8  -0.6  723  267           
09 18.07.15 250 (З) 7-12{12}  20000 м    5/5 1000 м 
[Cu hum]
+26.3 +9.1 34 +27  1012.5  -1.6  722  264           
12 18.07.15 260 (З) 8-12{14}  20000 м    3/3 1000 м 
[Cu hum]
+26.6 +8.4 32 +27  1010.5  -1.9  720  263           
15 18.07.15 260 (З) 9-12{13}  20000 м    3/3 1000 м 
[Cu hum]
+24.5 +10.4 41 +27  1009.5  -1.4  719  264    +27.5       
18 18.07.15 250 (З) 7-10{17}  20000 м  зарница{гроза, ливн. осадки}  5/3 1000 м кучево-дожд., средняя 
[Cb calv|Ac trans]
+20.1 +13.1 64 +27  1010.7  0.5  720  267           
21 18.07.15 280 (З) 4{13}  20000 м  в посл. час ливневой дождь  8/4 1000 м кучево-дожд., средняя 
[Cb calv|Ac trans]
+14.9 +12.9 88 +21  1013.3  1.5  721  273           
00 19.07.15 290 (З) 20000 м  {ливн. осадки}  5/0 средняя 
[Ac trans]
+13.8 +9.3 74 +15  1013.7  -0.1  721  275           
03 19.07.15 280 (З) 20000 м    3/0 средняя 
[Ac trans]
+13.5 +9 74 +14  1014.9  1.1  722  275  +12.5      влажная 
06 19.07.15 290 (З) 6{10}  20000 м    4/4 600 м 
[Sc]
+17.4 +9.9 61 +19  1015.1  0.8  722  272           
09 19.07.15 290 (З) 7-11{12}  20000 м    8/8 600 м 
[Sc]
+20.7 +9.7 49 +22  1015.1  0.5  723  269           
12 19.07.15 290 (З) 6-10{11}  20000 м    6/6 1000 м 
[Sc]
+21.8 +9 44 +22  1015.6  0.7  723  268           
15 19.07.15 320 (СЗ) 3{10}  20000 м    4/4 1000 м 
[Sc]
+21.6 +8.7 44 +22  1016.2  0.5  724  269    +22.1       
18 19.07.15 270 (З) 20000 м    3/0 средняя 
[Ac trans]
+16.1 +9.5 65 +17  1018  0.8  724  274           
21 19.07.15 290 (З) 20000 м    ясно 
+16.7 +8.9 60 +18  1017.6  -0.3  724  273           
00 20.07.15 тихо ()   20000 м    ясно 
+14.6 +9.2 70 +15  1017.1  -0.8  723  275           
03 20.07.15 170 (Ю) 20000 м    ясно 
+16 +10.5 70 +20  1017  0.1  723  273  +13.2        сухая 
06 20.07.15 120 (ЮВ) 20000 м    ясно 
+22.5 +8.1 40 +23  1014.9  0.1  723  268           
09 20.07.15 080 (В) 20000 м    ясно 
+25.6 +6.5 29 +26  1013.4  -1  722  265           
12 20.07.15 070 (В) 20000 м    ясно 
+27.7 +4.7 23 +28  1011.8  -1.2  721  263           
15 20.07.15 090 (В) 20000 м    ясно 
+27.1 +4.3 23 +27  1010.8  -1.1  720  263    +28.1       
18 20.07.15 110 (В) 20000 м    ясно 
+21.3 +5.1 35 +21  1011.9  0.1  720  268           
21 20.07.15 130 (ЮВ) 20000 м    ясно 
+21.3 +5.1 35 +21  1011.9  -1.1  720  268           
00 21.07.15 130 (ЮВ) 20000 м    ясно 
+17.5 +5.5 45 +18  1010.3  -1.1  719  271           
03 21.07.15 180 (Ю) 20000 м    ясно 
+17.9 +7.9 52 +19  1010.2  719  270  +15.5        сухая 
06 21.07.15 120 (ЮВ) 20000 м    ясно 
+25.5 +7.2 31 +26  1008.4  -0.5  719  264           
09 21.07.15 130 (ЮВ) 20000 м    ясно 
+30.2 +6.3 22 +30  1006.5  -1  718  259           
12 21.07.15 290 (З) 20000 м    3/0 верхняя 
[Ci fib]
+31.3 +7.3 22 +31  1005.9  -0.4  717  258           
15 21.07.15 290 (З) 6{10}  20000 м    4/0 верхняя 
[Ci fib]
+28.7 +7.8 27 +29  1007.1  0.7  718  260    +31.7       
18 21.07.15 300 (СЗ) 20000 м    3/0 верхняя 
[Ci fib]
+23.8 +10.4 43 +26  1009.8  1.9  719  265           
21 21.07.15 270 (З) 20000 м    3/0 верхняя 
[Ci fib]
+18.5 +10.7 60 +22  1012  1.2  720  270           
00 22.07.15 290 (З) 20000 м    3/0 средняя 
[Ac trans]
+17.8 +11.4 66 +22  1012.5  0.4  721  270           
03 22.07.15 270 (З) 20000 м    8/3 1000 м средняя 
[Sc|Ac trans]
+17.9 +13.6 76 +25  1014  1.5  722  270  +16.9        сухая 
06 22.07.15 320 (СЗ) 20000 м    8/3 600 м средняя, верхняя 
[Cu med, cong|Ac trans|Ci fib]
+21.7 +14.1 62 +30  1014.7  1.3  723  267           
09 22.07.15 320 (СЗ) 20000 м    6/6 600 м 
[Cu hum]
+25 +9.1 36 +26  1014.6  0.4  723  265           
12 22.07.15 340 (С) 20000 м    3/3 1000 м 
[Cu hum]
+25.9 +6.2 28 +26  1014.2  -0.3  723  265           
15 22.07.15 310 (СЗ) 20000 м    ясно 
+24.9 +5.5 29 +25  1014.8  0.3  723  266    +26.3       
18 22.07.15 330 (СЗ) 20000 м    ясно 
+20.6 +6.4 40 +21  1016.6  0.3  724  270           
21 22.07.15 340 (С) 20000 м    ясно 
+18.8 +6.9 46 +20  1016.9  724  272           
00 23.07.15 010 (С) 20000 м    ясно 
+16 +7 55 +17  1017.4  0.1  724  274           
03 23.07.15 070 (В) 20000 м    4/0 средняя 
[Ac trans]
+19.2 +7.4 46 +21  1017.2  0.4  724  271  +13.7        сухая 
06 23.07.15 130 (ЮВ) 20000 м    3/0 средняя 
[Ac trans]
+24.3 +6 31 +24  1016.2  0.1  724  267           
09 23.07.15 250 (З) 20000 м    3/0 верхняя 
[Ci fib]
+28.1 +6.4 25 +28  1014.4  -1  723  263           
12 23.07.15 200 (Ю) 1{11}  20000 м    ясно 
+30.1 +6.1 22 +30  1013.2  -0.8  723  261           
15 23.07.15 040 (СВ) 20000 м    ясно 
+29.1 +5.9 23 +29  1012.7  -0.6  722  262    +30.6       
18 23.07.15 340 (С) 20000 м    ясно 
+24.4 +7.7 34 +24  1014.2  0.6  722  266           
21 23.07.15 020 (С) 20000 м    ясно 
+21.5 +6.9 39 +22  1014.7  722  269           
00 24.07.15 020 (С) 20000 м    ясно 
+19.3 +6.8 44 +20  1015.1  722  271           
03 24.07.15 080 (В) 20000 м    ясно 
+20.7 +7.2 42 +21  1015.3  0.5  723  270  +18.8        сухая 
06 24.07.15 060 (СВ) 20000 м    ясно 
+26.8 +6.8 28 +27  1014.4  0.2  723  264           
09 24.07.15 100 (В) 20000 м    ясно 
+31.3 +8.8 25 +32  1012.7  -0.8  722  260           
12 24.07.15 070 (В) 5{11}  20000 м    ясно 
+33.5 +8.8 22 +34  1011  -1.3  721  257           
15 24.07.15 080 (В) 5{11}  20000 м    ясно 
+32.1 +8 22 +32  1010.6  -0.6  721  259    +33.7       
18 24.07.15 100 (В) 20000 м    ясно 
+24.4 +8.1 35 +24  1012.3  0.4  721  265           
21 24.07.15 110 (В) 20000 м    ясно 
+23.8 +6.3 32 +24  1011.9  -0.6  721  266           
00 25.07.15 110 (В) 20000 м    ясно 
+21.8 +6.6 37 +22  1011.8  -0.4  720  268           
03 25.07.15 060 (СВ) 20000 м    ясно 
+20.8 +8.5 45 +21  1012.4  0.4  721  268  +18.1        сухая 
06 25.07.15 110 (В) 9-15{15}  20000 м    ясно 
+29.3 +6.1 23 +29  1011  0.1  721  261           
09 25.07.15 110 (В) 11-17{17}  20000 м    ясно 
+33.2 +4.8 17 +33  1009.2  -1.1  720  258           
12 25.07.15 100 (В) 10-13{17}  20000 м    ясно 
+34.3 +4 15 +34  1007.8  -1.2  719  257           
15 25.07.15 110 (В) 9-12{15}  20000 м    3/0 верхняя 
[Ci fib]
+32.7 +3.7 16 +33  1007.4  -0.6  719  258    +34.6       
18 25.07.15 080 (В) 6{12}  20000 м    4/3 1000 м средняя 
[Sc diur, vesp|Ac trans]
+26.6 +7.5 30 +27  1009  0.6  719  263           
21 25.07.15 110 (В) 5{12}  20000 м    4/0 средняя 
[Ac trans]
+23.7 +11 45 +27  1009.5  719  265           
00 26.07.15 110 (В) 20000 м    3/0 средняя 
[Ac trans]
+19.9 +9.7 52 +23  1009  -1.1  718  268           
03 26.07.15 090 (В) 20000 м    4/0 средняя 
[Ac trans]
+19 +11 60 +23  1009.7  0.6  719  269  +17.3        сухая 
06 26.07.15 120 (ЮВ) 10-13{13}  20000 м    3/0 средняя 
[Ac trans]
+27 +10.8 36 +30  1008.7  0.4  719  262           
09 26.07.15 100 (В) 10-14{15}  20000 м    ясно 
+31.3 +10.6 28 +34  1007.7  -0.4  719  258           
12 26.07.15 110 (В) 9-14{16}  20000 м    ясно 
+34 +8.4 21 +34  1006.5  -0.7  718  256           
15 26.07.15 110 (В) 7{14}  20000 м    4/0 верхняя 
[Ci fib]
+32.5 +7.8 22 +33  1005.9  -0.8  718  257    +34.1       
18 26.07.15 090 (В) 5{10}  20000 м    5/0 верхняя 
[Ci fib]
+26.9 +7.4 29 +27  1007.2  0.3  718  262           
21 26.07.15 110 (В) 20000 м    3/0 верхняя 
[Ci fib]
+22.5 +9 42 +23  1007.1  -0.7  717  265           
00 27.07.15 100 (В) 20000 м    ясно 
+19 +10.9 59 +22  1007.5  -0.2  717  268           
03 27.07.15 070 (В) 20000 м    ясно 
+19.8 +11.7 60 +24  1008.2  0.8  718  267  +17.5        сухая 
06 27.07.15 110 (В) 8-11{11}  20000 м    ясно 
+27.7 +8.1 29 +28  1007  0.1  718  261           
09 27.07.15 120 (ЮВ) 9-20{20}  20000 м    ясно 
+32 +8.5 23 +32  1005.3  -1  717  257           
12 27.07.15 100 (В) 7-10{20}  20000 м    3/3 600 м 
[Cu hum]
+33.4 +9.4 23 +35  1003.9  -1.1  716  256           
15 27.07.15 120 (ЮВ) 5{13}  20000 м    8/4 1000 м кучево-дожд., средняя 
[Cb calv|Ac trans]
+32.3 +9.9 25 +34  1003.8  -0.3  716  256    +34.1       
18 27.07.15 110 (В) 3{12}  20000 м  {гроза, ливн. осадки}  8/4 1000 м кучево-дожд., средняя 
[Cb calv|Ac trans]
+26 +13.6 46 +33  1005.6  0.8  717  261           
21 27.07.15 120 (ЮВ) 20000 м    8/3 1000 м кучево-дожд., средняя 
[Cb calv|Ac trans]
+24.1 +10.4 42 +27  1005.8  -0.2  716  263           
00 28.07.15 140 (ЮВ) 20000 м    6/0 средняя 
[Ac trans]
+21.3 +11 52 +25  1006.8  0.5  717  266           
03 28.07.15 180 (Ю) 20000 м    9/4 1000 м кучево-дожд., средняя 
[Cb calv|Ac trans]
+21.4 +11.5 53 +26  1007.1  0.4  717  266  +20.1    0.5    сухая 
06 28.07.15 280 (З) 20000 м    8/3 1000 м средняя 
[Sc diur, vesp|Ac trans]
+26 +12.2 42 +31  1006.8  0.5  718  262           
09 28.07.15 120 (ЮВ) 20000 м    3/1 1000 м средняя 
[Cu hum|Ac trans]
+31.7 +7.3 22 +32  1005.3  -0.6  717  258           
12 28.07.15 090 (В) 4{11}  20000 м    6/4 1000 м средняя 
[Cu med, cong|Ac As]
+32.4 +8.3 22 +32  1004.5  -0.6  717  257           
15 28.07.15 280 (З) 4{13}  20000 м  гроза без осадков{ливн. осадки}  8/4 600 м кучево-дожд., средняя 
[Cb calv|Ac trans]
+24.4 +18 68 +40  1006.6  0.8  717  261    +33.2     
18 28.07.15 250 (З) 20000 м  зарница{гроза}  8/3 1000 м кучево-дожд., средняя 
[Cb cap|Ac As]
+22.4 +15.8 66 +34  1008.5  1.4  718  264           
21 28.07.15 270 (З) 20000 м    6/3 1000 м средняя 
[Sc diur, vesp|Ac trans]
+22.5 +17.6 74 +37  1009  0.5  719  264           
00 29.07.15 320 (СЗ) 20000 м    1/0 средняя 
[Ac trans]
+20.4 +18.1 87 +36  1010  0.6  719  265           
03 29.07.15 300 (СЗ) 20000 м    3/1 1000 м средняя 
[Sc diur, vesp|Ac cast]
+20.7 +17.7 83 +36  1010.8  0.8  720  265  +19.1        влажная 
06 29.07.15 300 (СЗ) 20000 м    4/3 1000 м 
[Sc]
+25.4 +17.1 60 +39  1010.9  0.9  720  262           
09 29.07.15 320 (СЗ) 20000 м    6/6 600 м кучево-дожд. 
[Cb calv]
+27.2 +16.4 52 +40  1010.4  -0.2  720  260           
12 29.07.15 260 (З) 20000 м    8/8 1000 м 
[Cu hum]
+30.3 +15 39 +40  1009.4  -0.5  720  258           
15 29.07.15 290 (З) 20000 м    3/1 1000 м верхняя 
[Cu hum|Ci fib]
+29.6 +12 34 +34  1009.6  720  259    +31       
18 29.07.15 290 (З) 20000 м    4/0 верхняя 
[Ci fib]
+25.2 +14.8 52 +35  1011.4  1.1  721  263           
21 29.07.15 320 (СЗ) 20000 м    1/0 верхняя 
[Ci fib]
+23.5 +13.9 55 +31  1011.7  0.1  721  265           
06 30.07.15 130 (ЮВ) 20000 м    3/0 верхняя 
[Ci fib]
+27.4 +17.5 55 +42  1011.7  0.3  721  260           
09 30.07.15 230 (ЮЗ) 20000 м    5/5 600 м 
[Cu hum]
+31.2 +13.7 34 +39  1010.2  -0.9  721  258           
12 30.07.15 100 (В) 20000 м    4/4 1000 м 
[Cu hum]
+33.1 +13.3 30 +40  1009.2  -0.7  720  256           
18 30.07.15 010 (С) 20000 м    ясно 
+27.8 +13 40 +34  1009.8  0.6  720  261           
21 30.07.15 040 (СВ) 20000 м    ясно 
+25.5 +11.3 41 +29  1009.7  -0.5  719  263           
00 31.07.15 040 (СВ) 20000 м    ясно 
+23.9 +10.8 44 +27  1009.1  -0.8  719  264           
03 31.07.15 090 (В) 20000 м    ясно 
+23.1 +11.3 47 +27  1009.3  719  265  +22        сухая 
06 31.07.15 120 (ЮВ) 20000 м    ясно 
+29.8 +13.1 36 +36  1008.3  0.2  719  259           
09 31.07.15 130 (ЮВ) 8-11{13}  20000 м    ясно 
+37 +7.8 17 +37  1006.1  -1  718  254           
12 31.07.15 130 (ЮВ) 6-11{13}  20000 м    ясно 
+38.1 +6.4 14 +38  1004.5  -1.4  717  253           
15 31.07.15 100 (В) 5{11}  20000 м    ясно 
+36.1 +6.3 16 +36  1004.1  -0.7  717  254    +38.4       
18 31.07.15 110 (В) 4{10}  20000 м    ясно 
+27.7 +6.9 27 +28  1006.2  0.7  717  261           
21 31.07.15 120 (ЮВ) 20000 м    ясно 
+26.5 +7.6 30 +27  1006.4  717  262           
00 01.08.15 150 (ЮВ) 20000 м    ясно 
+23.7 +8 37 +24  1005.9  -0.9  717  264           
03 01.08.15 140 (ЮВ) 20000 м    3/0 средняя 
[Ac trans]
+23.7 +9.4 40 +25  1006.1  0.2  717  264  +22.3        сухая 
06 01.08.15 190 (Ю) 20000 м    3/0 верхняя 
[Ci fib]
+31.9 +10 26 +34  1005.1  0.3  717  257           
09 01.08.15 310 (СЗ) 20000 м    1/0 верхняя 
[Ci fib]
+36.2 +11.2 22 +40  1005  0.6  717  253           
12 01.08.15 290 (З) 20000 м    4/0 верхняя 
[Ci]
+38.2 +11.6 20 +42  1004.6  0.1  717  251           
15 01.08.15 260 (З) 20000 м    9/0 средняя 
[Ac trans]
+35 +14 28 +43  1006  0.9  718  254    +38.3       
18 01.08.15 320 (СЗ) 20000 м    8/0 средняя, верхняя 
[Ac trans|Ci fib]
+30.6 +15.1 39 +41  1008  1.2  719  257           
21 01.08.15 330 (СЗ) 20000 м    3/0 верхняя 
[Ci fib]
+26.2 +15.3 51 +37  1010.6  1.2  720  262           
00 02.08.15 340 (С) 6{10}  20000 м    3/0 верхняя 
[Ci fib]
+21.8 +15 65 +32  1013.1  1.6  722  266           
03 02.08.15 340 (С) 20000 м    3/0 верхняя 
[Ci fib]
+19.5 +14 71 +29  1016  2.3  723  269  +19.4        сухая 
06 02.08.15 360 (С) 20000 м    3/0 верхняя 
[Ci fib]
+22.7 +13.2 55 +29  1016.4  0.9  724  267           
09 02.08.15 010 (С) 20000 м    5/0 верхняя 
[Ci fib]
+27.9 +12.4 38 +33  1015.5  724  262           
12 02.08.15 030 (СВ) 5{10}  20000 м    5/0 верхняя 
[Ci fib]
+31.2 +10.9 29 +34  1014.7  -0.4  724  260           
Время (UTC), дата Ветер
(°,м/с) 
Видим.   Явления Облачность Т
(°С)
Тd
(°С)
f(%) Тe
(°С)
Pmin
(гПа)
dP
(гПа)
Po
(мм)
O2
(г/м3)
Тmin Tmax R s Состояние
почвы